Weather History for KHPN - November, 2011

Change the Weather History Date:

Wednesday, November 16, 2011

  Actual Average Record
Temperature  
Mean Temperature 54 °F -  
Max Temperature 57 °F 48 °F 69 °F (1990)
Min Temperature 52 °F 34 °F 19 °F (1996)
Degree Days  
Heating Degree Days 10    
Growing Degree Days 4 (Base 50)    
Moisture  
Dew Point 52 °F    
Average Humidity 92    
Maximum Humidity 100    
Minimum Humidity 83    
Precipitation  
Precipitation 0.96 in - - ()
Sea Level Pressure  
Sea Level Pressure 29.81 in    
Wind  
Wind Speed 2 mph (NNW)    
Max Wind Speed 10 mph    
Max Gust Speed -    
Visibility 6 miles    
Events Rain    
Averages and records for this station are not official NWS values.
T = Trace of Precipitation, MM = Missing Value Source: NWS Daily Summary

Daily Weather History Graph

Daily Weather History Graph

Search for Another Location

Airport or City:

Trip Planner

Search our weather history database for the weather conditions in past years. The results will help you decide how hot, cold, wet, or windy it might be!

Date:

Astronomy

Nov. 16, 2011 Rise Set
Actual Time 6:43 AM EST 4:35 PM EST
Civil Twilight 6:13 AM EST 5:04 PM EST
Nautical Twilight 5:40 AM EST 5:38 PM EST
Astronomical Twilight 5:07 AM EST 6:10 PM EST
Moon 9:46 PM EST (11/16) 11:17 AM EST (11/16)
Length of Visible Light 10h 51m
Length of Day
9h 52m
Waning Gibbous, 70% of the Moon is Illuminated
Nov 16
Waning Gibbous
Nov 18
Last Quarter
Nov 25
New
Dec 2
First Quarter
Dec 10
Full

Hourly Weather History & Observations

Time (EST) Temp. Dew Point Humidity Pressure Visibility Wind Dir Wind Speed Gust Speed Precip Events Conditions
12:56 AM 53.1 °F 50.0 °F 89% 29.94 in 10.0 mi Calm Calm - N/A   Overcast
1:56 AM 53.1 °F 50.0 °F 89% 29.94 in 10.0 mi Calm Calm - N/A   Overcast
2:56 AM 53.6 °F 51.8 °F 94% 29.93 in 10.0 mi Calm Calm - N/A   Mostly Cloudy
3:56 AM 53.1 °F 51.1 °F 93% 29.92 in 10.0 mi Calm Calm - 0.00 in   Overcast
4:56 AM 52.0 °F 50.0 °F 93% 29.92 in 10.0 mi South 3.5 mph - 0.00 in   Overcast
5:56 AM 55.0 °F 51.1 °F 86% 29.92 in 10.0 mi Calm Calm - 0.00 in   Overcast
6:56 AM 53.6 °F 51.8 °F 94% 29.91 in 10.0 mi Calm Calm - N/A   Overcast
7:56 AM 54.0 °F 52.0 °F 93% 29.93 in 8.0 mi SE 3.5 mph - N/A   Overcast
8:56 AM 55.9 °F 52.0 °F 87% 29.92 in 10.0 mi Calm Calm - N/A   Overcast
9:56 AM 57.0 °F 52.0 °F 83% 29.89 in 10.0 mi Calm Calm - N/A   Mostly Cloudy
10:56 AM 57.0 °F 52.0 °F 83% 29.87 in 10.0 mi SSE 4.6 mph - N/A   Overcast
11:56 AM 55.9 °F 53.1 °F 90% 29.84 in 6.0 mi SE 4.6 mph - 0.00 in Rain Light Rain
12:43 PM 55.4 °F 53.6 °F 94% 29.79 in 5.0 mi ENE 3.5 mph - 0.00 in   Drizzle
12:56 PM 55.9 °F 53.1 °F 90% 29.79 in 4.0 mi Calm Calm - 0.01 in Rain Light Rain
1:23 PM 55.4 °F 53.6 °F 94% 29.78 in 1.2 mi Calm Calm - 0.06 in Rain Rain
1:56 PM 55.0 °F 53.1 °F 93% 29.77 in 1.5 mi Calm Calm - 0.13 in Rain Rain
2:56 PM 55.0 °F 53.1 °F 93% 29.73 in 1.5 mi NE 5.8 mph - 0.15 in Rain Rain
3:56 PM 55.0 °F 54.0 °F 96% 29.73 in 1.2 mi Calm Calm - 0.21 in Rain Light Rain
4:56 PM 55.0 °F 53.1 °F 93% 29.72 in 1.2 mi North 4.6 mph - 0.12 in Rain Heavy Rain
5:56 PM 55.0 °F 53.1 °F 93% 29.71 in 1.2 mi North 6.9 mph - 0.09 in Rain Rain
6:34 PM 55.4 °F 53.6 °F 94% 29.73 in 2.0 mi NW 8.1 mph - 0.14 in Rain Rain
6:54 PM 55.4 °F 53.6 °F 94% 29.73 in 2.0 mi NNW 10.4 mph - 0.17 in Rain Light Rain
6:56 PM 55.0 °F 53.1 °F 93% 29.74 in 2.0 mi NNW 10.4 mph - 0.17 in Rain Light Rain
7:38 PM 53.6 °F 53.6 °F 100% 29.74 in 2.0 mi NW 10.4 mph - 0.02 in Rain Light Rain
7:56 PM 54.0 °F 53.1 °F 97% 29.75 in 4.0 mi NW 6.9 mph - 0.03 in Rain Light Rain
8:56 PM 54.0 °F 52.0 °F 93% 29.75 in 8.0 mi NW 5.8 mph - 0.03 in   Overcast
9:56 PM 53.6 °F 51.8 °F 94% 29.73 in 10.0 mi NNW 8.1 mph - N/A Rain Light Rain
10:56 PM 53.1 °F 51.1 °F 93% 29.73 in 10.0 mi NW 4.6 mph - 0.01 in Rain Light Rain
11:56 PM 53.1 °F 51.1 °F 93% 29.75 in 10.0 mi NW 4.6 mph - 0.01 in Rain Light Rain